This is the latest recevied weather packets stored in our database for station/object DJ9MA-10. If no packets are shown the sender has not sent any weather packets the latest 10 day(s).
| Time | Temp. | Humidity | Pressure | Rain* | Wind** | Luminosity | Snow |
|---|---|---|---|---|---|---|---|
| 1777562033 | 16.67° C | 30% | 972.9 hPa | - | - | - | - |
| 1777561133 | 16.67° C | 30% | 973 hPa | - | - | - | - |
| 1777560233 | 16.67° C | 30% | 972.9 hPa | - | - | - | - |
| 1777559333 | 16.11° C | 29% | 973 hPa | - | - | - | - |
| 1777558433 | 16.11° C | 28% | 973.2 hPa | - | - | - | - |
| 1777557533 | 16.11° C | 28% | 973.3 hPa | - | - | - | - |
| 1777556633 | 16.11° C | 30% | 973.4 hPa | - | - | - | - |
| 1777555733 | 16.11° C | 32% | 973.4 hPa | - | - | - | - |
| 1777554833 | 16.11° C | 30% | 973.5 hPa | - | - | - | - |
| 1777553933 | 16.11° C | 30% | 973.6 hPa | - | - | - | - |
| 1777553033 | 16.11° C | 29% | 973.6 hPa | - | - | - | - |
| 1777552133 | 15.56° C | 27% | 973.8 hPa | - | - | - | - |
| 1777551233 | 16.11° C | 30% | 973.8 hPa | - | - | - | - |
| 1777550332 | 16.67° C | 31% | 973.7 hPa | - | - | - | - |
| 1777549433 | 15.56° C | 31% | 973.7 hPa | - | - | - | - |
| 1777548532 | 15.56° C | 31% | 973.7 hPa | - | - | - | - |
| 1777547632 | 16.11° C | 31% | 973.9 hPa | - | - | - | - |
| 1777546732 | 15.56° C | 31% | 974 hPa | - | - | - | - |
| 1777545832 | 15° C | 31% | 974.2 hPa | - | - | - | - |
| 1777544932 | 15° C | 30% | 974.3 hPa | - | - | - | - |
| 1777544032 | 16.11° C | 29% | 974.4 hPa | - | - | - | - |
| 1777543132 | 17.78° C | 29% | 974.4 hPa | - | - | - | - |
| 1777542232 | 17.78° C | 29% | 974.6 hPa | - | - | - | - |
| 1777541332 | 19.44° C | 29% | 974.5 hPa | - | - | - | - |
| 1777540432 | 20° C | 29% | 974.6 hPa | - | - | - | - |
* Rain since midnight (hover to see other rain measurements)
** Current wind speed in m/s (hover to see current wind gust speed)